TimeCST,TemperatureF,Dew PointF,Humidity,Sea Level PressureIn,VisibilityMPH,Wind Direction,Wind SpeedMPH,Gust SpeedMPH,PrecipitationIn,Events,Conditions,WindDirDegrees,DateUTC
12:52 AM,54.0,33.1,45,30.18,-9999.0,SSE,6.9,-,N/A,,Unknown,150,2012-11-19 06:52:00
1:52 AM,53.1,34.0,48,30.17,-9999.0,SSE,8.1,-,N/A,,Unknown,150,2012-11-19 07:52:00
2:52 AM,54.0,34.0,47,30.16,-9999.0,SSE,10.4,-,N/A,,Unknown,150,2012-11-19 08:52:00
3:52 AM,53.1,35.1,50,30.15,-9999.0,South,8.1,-,N/A,,Unknown,170,2012-11-19 09:52:00
4:52 AM,53.1,36.0,52,30.15,-9999.0,South,9.2,-,N/A,,Unknown,180,2012-11-19 10:52:00
5:52 AM,52.0,39.0,61,30.15,-9999.0,South,8.1,-,N/A,,Unknown,180,2012-11-19 11:52:00
6:52 AM,51.1,42.1,71,30.16,-9999.0,South,9.2,-,N/A,,Unknown,180,2012-11-19 12:52:00
7:52 AM,48.9,42.1,77,30.17,-9999.0,South,8.1,-,N/A,,Unknown,190,2012-11-19 13:52:00
8:52 AM,52.0,44.1,74,30.17,-9999.0,South,8.1,-,N/A,,Unknown,170,2012-11-19 14:52:00
9:52 AM,53.1,44.1,71,30.16,-9999.0,South,10.4,-,N/A,,Unknown,190,2012-11-19 15:52:00
10:52 AM,55.9,46.0,69,30.14,-9999.0,SSW,15.0,-,N/A,,Unknown,200,2012-11-19 16:52:00
11:52 AM,60.1,46.0,60,30.11,-9999.0,SSW,11.5,17.3,N/A,,Unknown,200,2012-11-19 17:52:00
12:52 PM,61.0,46.0,58,30.08,-9999.0,SSW,11.5,-,N/A,,Unknown,210,2012-11-19 18:52:00
1:52 PM,62.1,46.0,56,30.06,-9999.0,South,5.8,-,N/A,,Unknown,180,2012-11-19 19:52:00
2:52 PM,63.0,46.9,56,30.06,-9999.0,South,9.2,-,N/A,,Unknown,190,2012-11-19 20:52:00
3:52 PM,62.1,46.9,58,30.06,-9999.0,South,8.1,-,N/A,,Unknown,180,2012-11-19 21:52:00
4:52 PM,57.9,46.0,65,30.07,-9999.0,South,3.5,-,N/A,,Unknown,170,2012-11-19 22:52:00
5:52 PM,52.0,45.0,77,30.09,-9999.0,South,3.5,-,N/A,,Unknown,190,2012-11-19 23:52:00
6:52 PM,52.0,45.0,77,30.09,-9999.0,South,3.5,-,N/A,,Unknown,170,2012-11-20 00:52:00
7:52 PM,48.0,43.0,83,30.10,-9999.0,Calm,Calm,-,N/A,,Unknown,0,2012-11-20 01:52:00
8:52 PM,46.0,42.1,86,30.09,-9999.0,SSE,3.5,-,N/A,,Unknown,160,2012-11-20 02:52:00
9:52 PM,44.1,41.0,89,30.10,-9999.0,Calm,Calm,-,N/A,,Unknown,0,2012-11-20 03:52:00
10:52 PM,50.0,44.1,80,30.09,-9999.0,Calm,Calm,-,N/A,,Unknown,0,2012-11-20 04:52:00
11:52 PM,46.9,42.1,83,30.09,-9999.0,WNW,3.5,-,N/A,,Unknown,300,2012-11-20 05:52:00